WA0FW-1 Weather Reports


Display with metric or nautical units.
time (UTC)temp
F
wind
direction
speed
MPH
gust
MPH
rain 1hr
in
rain 24hr
in
rain mn
in
humidity
%
barometer
mb
20210728201707 88 50 0.0 2.0 0.00 0.12 0.12 63 1012.0
20210728200808 90 122 0.0 2.0 0.00 0.12 0.12 64 1012.0
20210728195908 90 1 2.0 2.0 0.00 0.12 0.12 64 1012.4
20210728195007 87 1 0.0 4.0 0.00 0.12 0.12 65 1012.4
20210728194108 88 294 4.0 20.0 0.00 0.12 0.12 64 1012.4
20210728193207 87 158 20.0 22.0 0.00 0.12 0.12 64 1012.7
20210728192308 87 90 22.0 22.0 0.00 0.12 0.12 64 1012.7
20210728191408 86 0 0.0 0.0 0.00 0.12 0.12 65 1012.7
20210728190508 87 135 0.0 2.0 0.00 0.12 0.12 63 1012.7
20210728185607 87 111 0.0 21.0 0.00 0.12 0.12 63 1013.1
20210728184707 83 68 0.0 1.0 0.00 0.12 0.12 68 1013.1
20210728183807 83 45 0.0 2.0 0.00 0.12 0.12 68 1013.4
20210728182907 82 66 2.0 18.0 0.00 0.12 0.12 69 1013.4
20210728182018 82 0 0.0 0.0 0.00 0.12 0.12 69 1013.7
20210728181108 83 1 0.0 22.0 0.00 0.12 0.12 68 1013.7
20210728180207 81 1 22.0 22.0 0.00 0.12 0.12 71 1013.7
20210728175307 79 336 0.0 2.0 0.00 0.12 0.12 72 1013.7
20210728174407 78 336 0.0 2.0 0.00 0.12 0.12 75 1013.7
20210728173512 78 336 2.0 2.0 0.00 0.12 0.12 77 1013.7
20210728172607 77 1 0.0 1.0 0.00 0.12 0.12 77 1014.1
20210728171707 77 0 0.0 0.0 0.00 0.12 0.12 77 1014.1
20210728170807 76 314 0.0 1.0 0.00 0.12 0.12 81 1014.1
20210728165907 75 314 1.0 1.0 0.00 0.12 0.12 84 1014.4
20210728165012 74 0 0.0 0.0 0.00 0.12 0.12 87 1014.4
20210728164107 73 292 0.0 2.0 0.00 0.12 0.12 89 1014.8
20210728163207 72 0 0.0 0.0 0.00 0.12 0.12 93 1015.1
20210728162307 71 0 0.0 0.0 0.00 0.12 0.12 93 1014.8
20210728161407 71 0 0.0 0.0 0.00 0.12 0.12 94 1015.1
20210728160507 70 0 0.0 0.0 0.00 0.12 0.12 94 1015.4
20210728155607 69 0 0.0 0.0 0.00 0.12 0.12 94 1015.4
20210728154707 69 0 0.0 0.0 0.00 0.12 0.12 94 1015.8
20210728153807 69 0 0.0 0.0 0.00 0.12 0.12 94 1015.8
20210728152907 69 0 0.0 0.0 0.00 0.12 0.12 94 1015.8
20210728152015 69 0 0.0 0.0 0.00 0.12 0.12 94 1015.8
20210728151107 68 0 0.0 0.0 0.00 0.12 0.12 94 1015.8
20210728150207 68 0 0.0 0.0 0.00 0.12 0.12 94 1015.8
20210728145307 68 0 0.0 0.0 0.00 0.12 0.12 94 1015.8
20210728144407 67 0 0.0 0.0 0.00 0.12 0.12 94 1016.1
20210728143508 67 0 0.0 0.0 0.02 0.12 0.12 94 1016.8
20210728142608 66 0 0.0 0.0 0.04 0.12 0.12 93 1017.5
20210728141706 66 0 0.0 0.0 0.06 0.12 0.12 93 1016.8
20210728140806 66 0 0.0 0.0 0.10 0.12 0.12 93 1016.8
20210728135907 66 0 0.0 0.0 0.10 0.12 0.12 93 1016.8
20210728135007 66 0 0.0 0.0 0.10 0.12 0.12 93 1016.4
20210728134106 66 135 0.0 1.0 0.12 0.12 0.12 93 1016.1
20210728133207 66 135 1.0 1.0 0.08 0.08 0.08 92 1017.5
20210728132306 66 0 0.0 0.0 0.08 0.08 0.08 91 1019.2
20210728131406 67 0 0.0 0.0 0.02 0.02 0.02 91 1019.5
20210728130508 67 0 0.0 0.0 0.02 0.02 0.02 90 1019.8
20210728125606 68 23 0.0 1.0 0.02 0.02 0.02 90 1019.8
20210728124706 70 222 0.0 3.0 0.00 0.00 0.00 90 1020.5
20210728123806 71 0 0.0 0.0 0.00 0.00 0.00 90 1020.5
20210728122906 70 0 0.0 0.0 0.00 0.00 0.00 89 1020.2
20210728122007 71 0 0.0 0.0 0.00 0.00 0.00 88 1020.2
20210728121119 71 0 0.0 0.0 0.00 0.00 0.00 87 1017.8
20210728120224 71 0 0.0 0.0 0.00 0.00 0.00 87 1016.8
20210728115306 71 0 0.0 0.0 0.00 0.00 0.00 87 1015.8
20210728114406 71 0 0.0 0.0 0.00 0.00 0.00 87 1014.8
20210728113506 71 0 0.0 0.0 0.00 0.00 0.00 87 1014.8
20210728112606 71 0 0.0 0.0 0.00 0.00 0.00 87 1015.4
20210728111706 71 0 0.0 0.0 0.00 0.00 0.00 87 1015.4
20210728110806 71 0 0.0 0.0 0.00 0.00 0.00 88 1015.1
20210728105906 71 0 0.0 0.0 0.00 0.00 0.00 88 1014.8
20210728105006 70 0 0.0 0.0 0.00 0.00 0.00 88 1015.1
20210728104106 70 0 0.0 0.0 0.00 0.00 0.00 89 1015.1
20210728103206 70 0 0.0 0.0 0.00 0.00 0.00 90 1014.8
20210728102307 70 0 0.0 0.0 0.00 0.00 0.00 90 1014.8
20210728101406 70 0 0.0 0.0 0.00 0.00 0.00 90 1015.1
20210728100506 70 0 0.0 0.0 0.00 0.00 0.00 90 1015.1
20210728095606 70 0 0.0 0.0 0.00 0.00 0.00 90 1015.1
20210728094706 70 0 0.0 0.0 0.00 0.00 0.00 90 1015.1
20210728093806 70 0 0.0 0.0 0.00 0.00 0.00 90 1015.1
20210728092906 71 0 0.0 0.0 0.00 0.00 0.00 90 1015.4
20210728092006 71 0 0.0 0.0 0.00 0.00 0.00 89 1015.4
20210728091106 71 0 0.0 0.0 0.00 0.00 0.00 89 1015.4
20210728090206 71 0 0.0 0.0 0.00 0.00 0.00 89 1015.8
20210728085306 71 0 0.0 0.0 0.00 0.00 0.00 89 1015.8
20210728084406 71 0 0.0 0.0 0.00 0.00 0.00 89 1015.4
20210728083506 72 0 0.0 0.0 0.00 0.00 0.00 88 1015.4
20210728082606 72 0 0.0 0.0 0.00 0.00 0.00 88 1015.4
20210728081706 72 0 0.0 0.0 0.00 0.00 0.00 89 1015.4
20210728080806 73 0 0.0 0.0 0.00 0.00 0.00 88 1015.4
20210728075906 73 0 0.0 0.0 0.00 0.00 0.00 88 1015.4
20210728075006 73 0 0.0 0.0 0.00 0.00 0.00 88 1015.4
20210728074106 74 0 0.0 0.0 0.00 0.00 0.00 88 1015.4
20210728073206 74 0 0.0 0.0 0.00 0.00 0.00 88 1015.4
20210728072306 74 0 0.0 0.0 0.00 0.00 0.00 87 1015.4
20210728071405 74 0 0.0 0.0 0.00 0.00 0.00 87 1015.4
20210728070506 74 0 0.0 0.0 0.00 0.00 0.00 87 1015.4
20210728065605 74 0 0.0 0.0 0.00 0.00 0.00 87 1015.4
20210728064705 74 0 0.0 0.0 0.00 0.00 0.00 87 1015.4
20210728063805 74 0 0.0 0.0 0.00 0.00 0.00 86 1015.4
20210728062905 74 0 0.0 0.0 0.00 0.00 0.00 86 1015.4
20210728061106 75 0 0.0 0.0 0.00 0.00 0.00 85 1015.4
20210728055409 75 0 0.0 0.0 0.00 0.00 0.00 86 1015.1
20210728054509 75 0 0.0 0.0 0.00 0.00 0.00 86 1015.4
20210728053609 75 0 0.0 0.0 0.00 0.00 0.00 86 1015.4
20210728052709 75 0 0.0 0.0 0.00 0.00 0.00 86 1015.4
20210728051809 75 0 0.0 0.0 0.00 0.00 0.00 85 1015.4
20210728050910 75 0 0.0 0.0 0.00 0.00 0.00 85 1015.4
20210728050009 75 0 0.0 0.0 0.00 0.00 0.00 85 1015.4
20210728045109 76 0 0.0 0.0 0.00 0.00 0.00 84 1015.1
20210728044209 76 0 0.0 0.0 0.00 0.00 0.00 84 1015.4
20210728043309 76 0 0.0 0.0 0.00 0.00 0.00 83 1015.4
20210728042409 76 0 0.0 0.0 0.00 0.00 0.00 83 1015.4
20210728041509 76 0 0.0 0.0 0.00 0.00 0.00 82 1015.1
20210728040609 76 0 0.0 0.0 0.00 0.00 0.00 82 1015.4
20210728035709 77 0 0.0 0.0 0.00 0.00 0.00 81 1015.4
20210728034809 77 0 0.0 0.0 0.00 0.00 0.00 81 1015.4
20210728033909 77 0 0.0 0.0 0.00 0.00 0.00 81 1015.8
20210728033009 78 0 0.0 0.0 0.00 0.00 0.00 80 1015.4
20210728032109 78 0 0.0 0.0 0.00 0.00 0.00 80 1015.1
20210728031209 78 0 0.0 0.0 0.00 0.00 0.00 81 1015.1
20210728030309 78 0 0.0 0.0 0.00 0.00 0.00 82 1014.8
20210728025408 78 0 0.0 0.0 0.00 0.00 0.00 82 1014.8
20210728024509 78 0 0.0 0.0 0.00 0.00 0.00 83 1014.8
20210728023609 79 0 0.0 0.0 0.00 0.00 0.00 83 1014.8
20210728022709 79 0 0.0 0.0 0.00 0.00 0.00 83 1014.8
20210728021808 79 0 0.0 0.0 0.00 0.00 0.00 83 1014.8
20210728020909 79 0 0.0 0.0 0.00 0.00 0.00 82 1014.8
20210728020009 80 0 0.0 0.0 0.00 0.00 0.00 81 1014.8
20210728015109 81 0 0.0 0.0 0.00 0.00 0.00 80 1014.8
20210728014209 81 0 0.0 0.0 0.00 0.00 0.00 79 1014.8
20210728013309 82 0 0.0 0.0 0.00 0.00 0.00 77 1014.8
20210728012408 82 0 0.0 0.0 0.00 0.00 0.00 77 1014.8
20210728011508 82 0 0.0 0.0 0.00 0.00 0.00 76 1014.8
20210728010608 83 0 0.0 0.0 0.00 0.00 0.00 75 1014.4
20210728005708 83 0 0.0 0.0 0.00 0.00 0.00 74 1014.4
20210728004809 83 0 0.0 0.0 0.00 0.00 0.00 74 1014.4
20210728003909 84 0 0.0 0.0 0.00 0.00 0.00 74 1014.4
20210728003008 85 0 0.0 0.0 0.00 0.00 0.00 72 1014.8
20210728002108 85 0 0.0 0.0 0.00 0.00 0.00 72 1014.8
20210728001208 85 0 0.0 0.0 0.00 0.00 0.00 71 1014.8
20210728000308 86 0 0.0 0.0 0.00 0.00 0.00 70 1014.8
20210727235408 87 0 0.0 0.0 0.00 0.00 0.00 70 1014.8
20210727234508 88 0 0.0 0.0 0.00 0.00 0.00 68 1014.4
20210727233608 88 0 0.0 0.0 0.00 0.00 0.00 67 1014.4
20210727232708 88 0 0.0 0.0 0.00 0.00 0.00 67 1014.4
20210727231808 89 0 0.0 0.0 0.00 0.00 0.00 67 1014.4
20210727230908 89 0 0.0 0.0 0.00 0.00 0.00 66 1014.4
20210727230008 89 0 0.0 0.0 0.00 0.00 0.00 66 1014.4
20210727225108 90 0 0.0 0.0 0.00 0.00 0.00 66 1014.4
20210727224208 91 270 0.0 35.0 0.00 0.00 0.00 63 1014.1
20210727223308 92 256 0.0 30.0 0.00 0.00 0.00 63 1014.1
20210727222409 91 0 0.0 0.0 0.00 0.00 0.00 63 1014.1
20210727221508 92 314 0.0 19.0 0.00 0.00 0.00 60 1014.4
20210727220608 95 314 19.0 21.0 0.00 0.00 0.00 57 1014.1
20210727215708 96 337 0.0 24.0 0.00 0.00 0.00 56 1014.1
20210727214808 96 61 0.0 23.0 0.00 0.00 0.00 56 1014.1
20210727213908 96 286 2.0 2.0 0.00 0.00 0.00 56 1014.4
20210727213008 96 247 0.0 1.0 0.00 0.00 0.00 58 1014.4
20210727212108 94 270 1.0 22.0 0.00 0.00 0.00 58 1014.8
20210727211208 95 251 22.0 24.0 0.00 0.00 0.00 57 1014.8
20210727210308 95 225 16.0 16.0 0.00 0.00 0.00 56 1014.4
20210727205408 95 242 0.0 21.0 0.00 0.00 0.00 58 1014.8
20210727204508 95 221 19.0 19.0 0.00 0.00 0.00 54 1014.8
20210727203608 96 135 0.0 2.0 0.00 0.00 0.00 55 1014.8
20210727202708 95 285 2.0 22.0 0.00 0.00 0.00 56 1014.8